カタログに戻る

STARLINK-3703

運用中通信VLEO
NORAD 52101·PAYLOAD·🇺🇸 United States

打ち上げ Mar 19, 2022 から Cape Canaveral Space Force Station

Loading…

次のパス (今後24時間)

TLE

最新Source: CelesTrak SupGP

元期: Sep 15, 2026, 01:59 UTC

1 52101C 22029P   26258.08312500  .00075799  00000+0  22378-2 0  2584
2 52101  53.1587 307.3780 0001260  84.6071   6.0110 15.34376458    18

AllMySatでSTARLINK-3703をリアルタイム追跡

Download on the App Store